[[{"header":{"parameterUnit":"m.s-1","parameterCategory":1,"la1":30.2991,"la2":30.254,"lo1":-89.0895,"lo2":-89.0444,"dy":0.0017,"dx":0.0017,"nx":28,"ny":28,"refTime":"2023-10-05T03:00:00:Z","depth":0,"parameterNumber":2,"parameterNumberName":"U-component_of_WINDS"},"data":[0,0,0,0,0,0,0,0,0,0,0,0,0,0,0,0,0,0,0,0,0,0,0,0,0,0,0,0,0,0,0,0,0,0,0,0,0,0,0,0,0,0,0,0,0,0,0,0,0,0,0,0,0,0,0,0,0,0,-0.8331,-0.833,0,-0.8221,-0.822,-0.8219,-0.8168,-0.8168,-0.8168,-0.8168,-0.805,-0.8047,-0.8044,0,0,0,0,0,0,0,0,0,0,0,0,0,-0.8494,-0.8491,-0.8331,-0.833,-0.8329,-0.8221,-0.822,-0.8218,-0.8168,-0.8168,-0.8168,-0.8168,-0.8052,-0.8048,-0.8044,0,0,0,0,0,0,0,0,0,0,0,0,0,-0.8407,-0.849,-0.8332,-0.8291,-0.8286,-0.8222,-0.822,-0.8218,-0.8168,-0.8168,-0.8168,-0.8168,-0.8053,-0.8048,-0.8043,-0.801,0,0,-0.8028,-0.8026,0,0,0,0,0,0,0,0,-0.8412,-0.8401,-0.8298,-0.8293,-0.8288,-0.8209,-0.8234,-0.8148,-0.8168,-0.8213,-0.8168,-0.8169,-0.8103,-0.8094,-0.8072,-0.8004,-0.7999,-0.8028,-0.8025,-0.8023,-0.8022,0,0,0,0,0,0,0,-0.8418,-0.8406,-0.8288,-0.8297,-0.8291,-0.8276,-0.8264,-0.8217,-0.8158,-0.8209,-0.8205,-0.8193,-0.81,-0.8077,-0.8069,-0.7997,-0.8028,-0.8024,-0.8021,-0.8019,-0.7897,-0.7897,0,0,0,0,0,0,-0.8432,-0.8411,-0.8291,-0.8284,-0.8352,-0.8273,-0.826,-0.8234,-0.8158,-0.8147,-0.8193,-0.8191,-0.8086,-0.8075,-0.8065,-0.8021,-0.8023,-0.8018,-0.8016,-0.7897,-0.7897,-0.7897,0,0,0,0,0,0,-0.8435,-0.8421,-0.8296,-0.8347,-0.833,-0.827,-0.8242,-0.8232,-0.8209,-0.8146,-0.8135,-0.8181,-0.8085,-0.8072,-0.8024,-0.8016,-0.8016,-0.8012,-0.7898,-0.7897,-0.7897,-0.7933,0,0,0,0,0,0,-0.844,-0.8423,-0.8411,-0.8347,-0.8327,-0.8258,-0.8241,-0.8229,-0.8201,-0.8198,-0.8132,-0.8121,-0.8084,-0.8032,-0.802,-0.801,-0.8008,-0.7898,-0.7898,-0.7897,-0.7933,-0.7934,-0.7936,0,0,0,0,0,-0.8446,-0.8424,-0.841,-0.8396,-0.8311,-0.8258,-0.8246,-0.8206,-0.8201,-0.8187,-0.8147,-0.8123,-0.802,-0.8028,-0.8013,-0.8002,-0.7899,-0.7898,-0.7897,-0.7932,-0.7934,-0.7936,0,0,0,0,0,0,-0.8486,-0.8415,-0.8399,-0.8356,-0.8314,-0.8249,-0.8231,-0.8209,-0.8166,-0.8164,-0.8114,-0.8099,-0.8057,-0.8024,-0.8034,-0.7966,-0.7957,-0.7953,-0.7988,-0.799,-0.7991,-0.7999,-0.8004,0,0,0,0,0,-0.849,-0.8455,-0.8394,-0.8361,-0.8342,-0.829,-0.8266,-0.8238,-0.8192,-0.8173,-0.8129,-0.8084,-0.8041,-0.8014,-0.7971,-0.7928,-0.7913,-0.7913,-0.7915,-0.7916,-0.7913,-0.7889,-0.7888,-0.7894,-0.7894,-0.7894,0,0,-0.8497,-0.8454,-0.8434,-0.8369,-0.8333,-0.8296,-0.8275,-0.8237,-0.8209,-0.8166,-0.812,-0.8086,-0.8032,-0.7988,-0.7966,-0.7959,-0.7909,-0.7915,-0.7917,-0.7913,-0.7888,-0.7888,-0.7887,-0.7894,-0.7894,-0.7894,0,0,-0.8492,-0.8456,-0.8426,-0.8391,-0.8338,-0.8304,-0.8297,-0.8237,-0.8213,-0.8166,-0.8134,-0.8099,-0.8026,-0.799,-0.7961,-0.7944,-0.7921,-0.7932,-0.7939,-0.7916,-0.7915,-0.7915,-0.7908,-0.7907,-0.7929,-0.7929,-0.7929,0,-0.8507,-0.8452,-0.8412,-0.8376,-0.8348,-0.8311,-0.8279,-0.8246,-0.8181,-0.8162,-0.8157,-0.8066,-0.8026,-0.7973,-0.7969,-0.7947,-0.7937,-0.7938,-0.7919,-0.7918,-0.7917,-0.791,-0.7908,-0.7931,-0.7931,-0.7931,-0.793,0,-0.8473,-0.8436,-0.8417,-0.8358,-0.8328,-0.8294,-0.8248,-0.8222,-0.8198,-0.8164,-0.8117,-0.8069,-0.8016,-0.8002,-0.7977,-0.7945,-0.7943,-0.7929,-0.7919,-0.7918,-0.7911,-0.7909,-0.7933,-0.7933,-0.7932,-0.7932,0,0,-0.8488,-0.8409,-0.8403,-0.8376,-0.8315,-0.8285,-0.8249,-0.82,-0.8178,-0.8135,-0.8104,-0.8044,-0.8031,-0.7999,-0.797,-0.795,-0.794,-0.7938,-0.7936,-0.794,-0.7902,-0.7912,-0.791,-0.7925,-0.7924,-0.7924,-0.7906,0,-0.8474,-0.8411,-0.8375,-0.8326,-0.829,-0.8255,-0.8225,-0.8184,-0.8152,-0.8116,-0.8081,-0.8039,-0.8026,-0.8007,-0.7985,-0.7946,-0.7931,-0.7947,-0.7894,-0.7892,-0.7908,-0.7906,-0.7917,-0.7903,-0.7903,-0.7903,-0.7903,0,-0.8449,-0.8409,-0.8357,-0.8302,-0.8286,-0.8259,-0.8211,-0.8178,-0.8131,-0.8109,-0.8075,-0.8046,-0.8007,-0.8001,-0.7946,-0.7957,-0.7934,-0.7911,-0.791,-0.7902,-0.7897,-0.7898,-0.7897,-0.7895,-0.7898,-0.7898,-0.7899,0,-0.8464,-0.8397,-0.8358,-0.8336,-0.8271,-0.8253,-0.8224,-0.8178,-0.8151,-0.8108,-0.809,-0.8044,-0.8018,-0.7982,-0.7941,-0.7941,-0.789,-0.7881,-0.787,-0.7871,-0.786,-0.7861,-0.7854,-0.7846,-0.7846,-0.7846,-0.7847,0,-0.8452,-0.8422,-0.8365,-0.834,-0.8305,-0.8264,-0.823,-0.8198,-0.8158,-0.8126,-0.8092,-0.8063,-0.8011,-0.7976,-0.7943,-0.7903,-0.7891,-0.7872,-0.7864,-0.7874,-0.7877,-0.7857,-0.7857,-0.7846,-0.7846,-0.7846,-0.7846,0,-0.8463,-0.8424,-0.8378,-0.8322,-0.8307,-0.8283,-0.8233,-0.8208,-0.8176,-0.8136,-0.8124,-0.8073,-0.8029,-0.7986,-0.7926,-0.7905,-0.7864,-0.7853,-0.7881,-0.7876,-0.7867,-0.7869,-0.7847,-0.7842,-0.7839,-0.7839,-0.7839,0,-0.8457,-0.8433,-0.8375,-0.8352,-0.8325,-0.8289,-0.8262,-0.822,-0.8193,-0.8139,-0.812,-0.8074,-0.8035,-0.7967,-0.7923,-0.7878,-0.7865,-0.7861,-0.7858,-0.787,-0.7865,-0.7866,-0.7864,-0.7862,-0.7862,-0.7862,-0.7863,0,-0.8451,-0.8433,-0.8397,-0.8354,-0.8323,-0.8286,-0.8248,-0.8231,-0.8182,-0.8153,-0.8109,-0.8079,-0.802,-0.7975,-0.7925,-0.7894,-0.787,-0.7865,-0.7859,-0.787,-0.7886,-0.7877,-0.7884,-0.7865,-0.7864,-0.7864,-0.7864,-0.7864,-0.8453,-0.843,-0.8386,-0.8347,-0.8314,-0.828,-0.8254,-0.822,-0.8183,-0.8132,-0.811,-0.8065,-0.8019,-0.795,-0.792,-0.7884,-0.7878,-0.7871,-0.7869,-0.7868,-0.787,-0.7894,-0.7875,-0.7875,-0.7875,-0.7875,-0.7875,0,-0.8444,-0.8415,-0.8379,-0.8329,-0.8297,-0.828,-0.8238,-0.8212,-0.8174,-0.8134,-0.8098,-0.8047,-0.8004,-0.7958,-0.7912,-0.7892,-0.788,-0.7881,-0.7882,-0.7875,-0.7878,-0.7887,-0.7892,-0.7892,-0.7892,-0.7892,-0.7892,-0.7892,-0.8436,-0.8398,-0.8375,-0.8321,-0.8291,-0.8248,-0.8226,-0.8194,-0.8162,-0.8108,-0.8073,-0.8044,-0.8001,-0.7952,-0.7911,-0.7899,-0.7883,-0.7888,-0.7872,-0.7876,-0.7875,-0.7873,-0.7881,-0.7885,-0.7885,-0.7871,-0.7871,-0.7871]},{"header":{"parameterUnit":"m.s-1","parameterCategory":1,"la1":30.2991,"la2":30.254,"lo1":-89.0895,"lo2":-89.0444,"dy":0.0017,"dx":0.0017,"nx":28,"ny":28,"refTime":"2023-10-05T03:00:00:Z","depth":0,"parameterNumber":3,"parameterNumberName":"V-component_of_WINDS"},"data":[0,0,0,0,0,0,0,0,0,0,0,0,0,0,0,0,0,0,0,0,0,0,0,0,0,0,0,0,0,0,0,0,0,0,0,0,0,0,0,0,0,0,0,0,0,0,0,0,0,0,0,0,0,0,0,0,0,0,-2.5306,-2.5308,0,-2.5491,-2.5493,-2.5495,-2.5534,-2.5533,-2.5531,-2.553,-2.5713,-2.5719,-2.5725,0,0,0,0,0,0,0,0,0,0,0,0,0,-2.4981,-2.4986,-2.5306,-2.5308,-2.531,-2.5491,-2.5493,-2.5496,-2.5534,-2.5533,-2.5531,-2.5529,-2.5711,-2.5719,-2.5726,0,0,0,0,0,0,0,0,0,0,0,0,0,-2.5139,-2.4988,-2.5305,-2.5351,-2.5357,-2.549,-2.5493,-2.5497,-2.5535,-2.5532,-2.553,-2.5529,-2.5709,-2.5718,-2.5727,-2.5825,0,0,-2.5755,-2.5759,0,0,0,0,0,0,0,0,-2.513,-2.5151,-2.5342,-2.5348,-2.5355,-2.5488,-2.5446,-2.5607,-2.5535,-2.5467,-2.553,-2.5528,-2.5639,-2.5654,-2.5693,-2.5834,-2.5842,-2.5756,-2.5762,-2.5766,-2.5768,0,0,0,0,0,0,0,-2.5119,-2.5143,-2.5379,-2.5345,-2.5353,-2.5361,-2.5382,-2.5477,-2.5562,-2.5473,-2.5476,-2.5498,-2.5643,-2.5684,-2.5698,-2.5844,-2.5756,-2.5764,-2.577,-2.5773,-2.6077,-2.6079,0,0,0,0,0,0,-2.5101,-2.5134,-2.5373,-2.5384,-2.5236,-2.5369,-2.5392,-2.5447,-2.5561,-2.5577,-2.5499,-2.5499,-2.567,-2.5687,-2.5704,-2.5829,-2.5766,-2.5774,-2.578,-2.6074,-2.6077,-2.608,0,0,0,0,0,0,-2.5094,-2.5122,-2.5366,-2.526,-2.5292,-2.5377,-2.5439,-2.5452,-2.5494,-2.5582,-2.5596,-2.5527,-2.5669,-2.5691,-2.5796,-2.5836,-2.5778,-2.5787,-2.6071,-2.6075,-2.6078,-2.6078,0,0,0,0,0,0,-2.5084,-2.5119,-2.5158,-2.5261,-2.5298,-2.5455,-2.5441,-2.5457,-2.551,-2.5512,-2.5611,-2.5626,-2.5669,-2.5782,-2.5805,-2.5848,-2.5794,-2.6068,-2.6073,-2.6077,-2.6075,-2.6081,-2.6087,0,0,0,0,0,-2.5072,-2.5149,-2.516,-2.5189,-2.5349,-2.5458,-2.5478,-2.5528,-2.5513,-2.5553,-2.561,-2.5623,-2.5827,-2.5792,-2.5819,-2.5865,-2.6066,-2.6071,-2.6077,-2.6072,-2.608,-2.6086,0,0,0,0,0,0,-2.5046,-2.5163,-2.5177,-2.5289,-2.5363,-2.5464,-2.5516,-2.5535,-2.5613,-2.5611,-2.5667,-2.5689,-2.5791,-2.5838,-2.5796,-2.5967,-2.5946,-2.5957,-2.5933,-2.5941,-2.5947,-2.5934,-2.5802,0,0,0,0,0,-2.5054,-2.5134,-2.5231,-2.5321,-2.5358,-2.543,-2.5479,-2.5512,-2.559,-2.5621,-2.5685,-2.5759,-2.5841,-2.5893,-2.5972,-2.6081,-2.6104,-2.6125,-2.6131,-2.6136,-2.6145,-2.6208,-2.6219,-2.6098,-2.6098,-2.6098,0,0,-2.5069,-2.5143,-2.519,-2.5317,-2.5379,-2.546,-2.5456,-2.5542,-2.5602,-2.5633,-2.5738,-2.5787,-2.5873,-2.5981,-2.6031,-2.6023,-2.6184,-2.6143,-2.6146,-2.6153,-2.6215,-2.6226,-2.6236,-2.6102,-2.6101,-2.6101,0,0,-2.5141,-2.5204,-2.5287,-2.5349,-2.5444,-2.5492,-2.5511,-2.561,-2.5645,-2.575,-2.5776,-2.5847,-2.5986,-2.6047,-2.6096,-2.6192,-2.6207,-2.6216,-2.6248,-2.6308,-2.6318,-2.6326,-2.6362,-2.6374,-2.6225,-2.6225,-2.6225,0,-2.5148,-2.5273,-2.5326,-2.5413,-2.5468,-2.5502,-2.5586,-2.5643,-2.5757,-2.5794,-2.5784,-2.596,-2.602,-2.6144,-2.6167,-2.6205,-2.623,-2.6206,-2.6312,-2.6322,-2.6331,-2.6366,-2.6379,-2.6225,-2.6225,-2.6225,-2.6225,0,-2.5279,-2.5365,-2.542,-2.5534,-2.5595,-2.5679,-2.5744,-2.5799,-2.5826,-2.5875,-2.5982,-2.6056,-2.6152,-2.6183,-2.6208,-2.631,-2.6303,-2.6301,-2.6282,-2.6342,-2.6376,-2.639,-2.6226,-2.6226,-2.6226,-2.6226,0,0,-2.5339,-2.5482,-2.5501,-2.5554,-2.5661,-2.5728,-2.5813,-2.591,-2.5957,-2.6034,-2.6108,-2.6225,-2.6225,-2.6281,-2.6313,-2.6366,-2.644,-2.6359,-2.6362,-2.6373,-2.6558,-2.6561,-2.6575,-2.645,-2.6452,-2.6455,-2.6552,0,-2.5425,-2.5582,-2.5633,-2.5763,-2.5844,-2.5878,-2.5953,-2.6025,-2.6073,-2.6148,-2.6199,-2.6282,-2.6275,-2.631,-2.6363,-2.642,-2.6478,-2.6413,-2.6518,-2.6522,-2.6499,-2.6593,-2.6595,-2.6684,-2.6565,-2.6568,-2.6569,0,-2.5546,-2.5629,-2.5768,-2.5867,-2.5903,-2.597,-2.6063,-2.6134,-2.6217,-2.6248,-2.6311,-2.634,-2.643,-2.6404,-2.6528,-2.6483,-2.6529,-2.6563,-2.6567,-2.6581,-2.6551,-2.6611,-2.6713,-2.6727,-2.659,-2.6589,-2.6587,0,-2.5579,-2.5725,-2.5828,-2.5871,-2.5988,-2.6035,-2.6085,-2.6167,-2.6222,-2.6303,-2.6339,-2.6428,-2.6477,-2.6544,-2.6596,-2.6572,-2.6716,-2.6694,-2.6744,-2.6743,-2.6775,-2.6773,-2.6888,-2.68,-2.68,-2.68,-2.68,0,-2.5671,-2.5755,-2.5845,-2.5908,-2.6004,-2.606,-2.6153,-2.6205,-2.6277,-2.635,-2.6383,-2.6451,-2.6514,-2.659,-2.663,-2.6728,-2.6749,-2.6776,-2.6786,-2.6775,-2.6772,-2.6807,-2.6803,-2.6804,-2.6803,-2.6802,-2.6801,0,-2.5724,-2.5788,-2.5903,-2.6005,-2.6033,-2.6099,-2.6186,-2.6248,-2.6297,-2.639,-2.6414,-2.6491,-2.6582,-2.664,-2.6754,-2.6782,-2.689,-2.6897,-2.6863,-2.6868,-2.6917,-2.6912,-2.7061,-2.7084,-2.6978,-2.6979,-2.698,0,-2.578,-2.5846,-2.5957,-2.601,-2.6062,-2.6146,-2.6204,-2.6261,-2.632,-2.6421,-2.6471,-2.6565,-2.6643,-2.6786,-2.6851,-2.6939,-2.695,-2.6996,-2.6963,-2.695,-2.6953,-2.695,-2.6958,-2.7001,-2.7002,-2.7003,-2.7004,0,-2.5873,-2.5902,-2.5985,-2.608,-2.6148,-2.6225,-2.6301,-2.6342,-2.6413,-2.6476,-2.6572,-2.6633,-2.6752,-2.6845,-2.6939,-2.6988,-2.7008,-2.7013,-2.703,-2.702,-2.6999,-2.7014,-2.688,-2.701,-2.7009,-2.7009,-2.7008,-2.7008,-2.5931,-2.5993,-2.6081,-2.6173,-2.6237,-2.6309,-2.6373,-2.6432,-2.6513,-2.6617,-2.6645,-2.6745,-2.6826,-2.6956,-2.7007,-2.7085,-2.7079,-2.7103,-2.7109,-2.7115,-2.7117,-2.6985,-2.7102,-2.7102,-2.7102,-2.7102,-2.7101,0,-2.6028,-2.6087,-2.6171,-2.6279,-2.6351,-2.6366,-2.6451,-2.651,-2.6599,-2.6675,-2.6752,-2.6862,-2.6952,-2.7025,-2.7117,-2.7166,-2.7177,-2.7188,-2.7186,-2.7198,-2.7116,-2.7094,-2.7178,-2.7178,-2.7178,-2.7178,-2.7178,-2.7178,-2.6087,-2.6193,-2.6232,-2.637,-2.6428,-2.6529,-2.6577,-2.6642,-2.6704,-2.6826,-2.6903,-2.695,-2.7025,-2.7123,-2.7207,-2.7225,-2.7259,-2.7269,-2.7289,-2.7212,-2.7203,-2.7196,-2.7175,-2.7275,-2.7275,-2.7366,-2.7367,-2.7367]}]]